Location: Radomski Observatory
(40.2854°N, 79.5145°W)
Time: 04:31:39
(UTC-04:00)

Daily predictions for brighter satellites

Satellite Brightness Start Highest point End
(mag) Time Altitude Azimuth Time Altitude Azimuth Time Altitude Azimuth
ALOS 2 4.0 00:07:04 29° ENE 00:07:04 29° ENE 00:10:32 10° N
USA 267 3.2 00:00:55 10° NE 00:07:23 61° SE 00:07:57 59° SSE
Cosmos 1605 Rocket 4.4 00:02:16 10° N 00:08:05 45° ENE 00:08:50 43° E
Cosmos 1535 Rocket 4.3 00:06:57 10° N 00:13:06 88° E 00:13:53 70° S
Spot 4 4.3 00:13:50 50° W 00:13:50 50° W 00:18:25 10° NNW
SeaSat 1 3.5 00:13:54 33° ENE 00:14:36 35° NE 00:19:04 10° N
Cosmos 1953 3.3 00:11:55 10° NNW 00:15:05 46° NW 00:15:05 46° NW
NOSS 3-1 (C) 4.1 00:08:31 10° NNW 00:16:09 74° NE 00:18:59 45° SE
Lacrosse 5 2.4 00:17:43 48° ENE 00:17:43 48° ENE 00:21:27 10° NE
Meteor 2-5 Rocket 4.0 00:20:16 55° E 00:20:24 55° E 00:26:11 10° NNE
ISS -0.4 00:19:47 10° NNW 00:21:03 12° N 00:22:20 10° NNE
Cosmos 2360 Rocket 3.4 00:16:31 10° N 00:21:32 31° ENE 00:22:52 28° E
Cosmos 2251 Rocket 3.4 00:21:41 85° ENE 00:21:41 85° ENE 00:27:01 10° NNE
SME Rocket 3.4 00:22:22 83° N 00:22:22 83° N 00:26:24 10° NNW
Cosmos 1980 Rocket 3.1 00:17:30 10° NW 00:22:37 36° WSW 00:22:51 36° WSW
Cosmos-2242 3.7 00:20:59 10° N 00:24:20 52° N 00:24:20 52° N
Cosmos 2098 Rocket 3.7 00:26:48 10° N 00:31:25 63° ENE 00:31:25 63° ENE
Cosmos 2322 Rocket 2.1 00:28:23 10° NNW 00:34:07 85° WSW 00:34:12 85° SW
Meteor 1-16 Rocket 4.2 00:31:47 10° N 00:37:09 66° ENE 00:37:09 66° ENE
Lacrosse 5 rocket 2.2 00:35:59 10° NW 00:40:09 53° NNE 00:40:09 53° NNE
USA 229 DEB 4.4 00:35:56 10° NW 00:42:29 39° WSW 00:43:06 39° SW
USA 229 4.4 00:36:01 10° NW 00:42:36 40° WSW 00:43:12 39° SW
Cosmos 1470 4.2 00:38:50 10° NNW 00:41:27 35° NW 00:41:27 35° NW
Cosmos 2221 4.4 00:43:21 10° NNE 00:46:08 21° ENE 00:46:08 21° ENE
NOSS 3-1 (A) 4.0 00:41:53 10° NW 00:49:36 87° ENE 00:51:52 54° SE
Cosmos 1707 4.3 00:51:28 33° NNW 00:51:28 33° NNW 00:53:55 10° N
Cosmos 1934 Rocket 4.3 00:46:22 10° NNW 00:52:32 55° W 00:53:14 53° WSW
CZ-3B R/B 4.5 00:52:52 64° ESE 00:52:52 64° ESE 01:05:36 10° NE
CZ-2C R/B 2.6 00:47:30 10° NNE 00:53:07 85° WNW 00:53:10 85° W
USA 32 4.1 00:54:04 74° NW 00:54:04 74° NW 00:59:04 10° N
Meteor 1-24 Rocket 3.8 00:56:31 69° ESE 00:56:37 69° E 01:02:38 10° NNE
Cosmos 2219 Rocket 4.3 01:00:18 10° N 01:04:25 20° NE 01:07:42 13° E
Cosmos 2100 Rocket 4.1 01:03:58 10° N 01:10:04 59° E 01:10:40 57° ESE
Cosmos 1842 Rocket 4.4 01:08:18 10° NNW 01:11:41 50° NNW 01:11:41 50° NNW
ATLAS CENTAUR R/B 3.7 01:10:06 10° NW 01:10:49 15° NW 01:10:49 15° NW
SL-16 R/B 3.4 01:21:18 10° NW 01:25:26 30° W 01:25:26 30° W
Cosmos 2061 Rocket 4.0 01:22:51 10° N 01:29:05 71° E 01:29:44 66° ESE
Cosmos 2123 Rocket 4.5 01:35:29 45° ESE 01:36:10 47° E 01:42:01 10° NNE
In-Cosmos 22 4.1 01:37:49 75° WNW 01:37:49 75° WNW 01:43:11 10° N
Cosmos 407 Rocket 4.3 01:38:24 40° E 01:38:24 40° E 01:42:37 10° NNE
CZ-2C R/B 4.3 01:39:13 32° W 01:39:13 32° W 01:43:49 10° NNW
Cosmos 2227 Rocket 3.9 01:41:02 20° E 01:41:02 20° E 01:45:02 10° NE
Meteor 2-1 Rocket 4.4 01:38:44 10° NNW 01:44:33 61° W 01:44:34 61° W
H-2A R/B 3.4 01:43:46 10° NNE 01:47:01 46° NE 01:47:01 46° NE
USA 267 4.2 01:44:06 10° NE 01:50:13 44° NNW 01:55:15 15° W
Cosmos 2322 3.9 01:46:20 10° NNW 01:51:19 56° W 01:51:19 56° W
SeaSat 1 4.0 01:53:41 25° WNW 01:53:41 25° WNW 01:56:27 10° NW
Cosmos 1992 Rocket 4.1 01:47:21 10° NNW 01:51:56 65° WNW 01:51:56 65° WNW
Cosmos 2237 4.1 01:49:53 10° NNW 01:55:24 75° W 01:55:24 75° W
Meteor 1-21 Rocket 4.2 01:55:17 76° SE 01:55:37 80° E 02:01:30 10° NNE
Cosmos 1190 Rocket 4.0 01:57:46 73° E 01:57:46 73° E 02:02:51 10° NNE
ISS -1.1 01:55:49 10° NNW 01:57:37 20° N 01:57:37 20° N
Lacrosse 5 3.8 01:56:51 16° WNW 01:59:47 26° NNW 02:04:01 10° NNE
Cosmos 1340 Rocket 4.1 02:02:01 36° NNW 02:02:01 36° NNW 02:04:35 10° N
Okean 3 Rocket 4.5 02:04:03 43° NW 02:04:03 43° NW 02:07:43 10° N
Cosmos 1725 Rocket 4.0 01:57:59 10° N 02:04:19 73° E 02:05:28 59° SE
Cosmos 2219 3.0 02:04:29 80° W 02:04:40 81° WNW 02:10:20 10° NNE
Cosmos 2360 Rocket 3.1 02:00:22 10° NW 02:04:36 35° W 02:04:36 35° W
Cosmos 2173 Rocket 4.2 02:03:49 10° NNW 02:09:40 50° W 02:09:56 50° W
COSMOS 2428 2.6 02:04:03 10° NNW 02:09:49 79° WSW 02:09:55 79° SW
Cosmos 1408 Rocket 4.0 02:10:56 59° N 02:10:56 59° N 02:14:29 10° N
Cosmos 1356 Rocket 4.2 02:11:59 48° NNE 02:11:59 48° NNE 02:15:01 10° NNE
SL-08 R/B 4.3 02:05:11 10° N 02:11:20 83° W 02:12:03 71° SSW
CZ-4B R/B 4.2 02:16:48 12° NW 02:16:48 12° NW 02:17:07 10° NW
ERBS 4.5 02:17:30 26° NNE 02:17:30 26° NNE 02:19:08 10° NE
Cosmos 2333 4.0 02:10:37 10° NNW 02:16:21 78° WSW 02:16:29 77° SW
Cosmos 1766 Rocket 4.0 02:19:02 56° NNW 02:19:02 56° NNW 02:22:39 10° N
USA 234 3.1 02:21:19 38° SE 02:24:05 82° SW 02:30:40 10° NW
Cosmos 2221 4.2 02:20:37 10° NNW 02:22:59 24° WNW 02:22:59 24° WNW
ATLAS 3B CENTAUR R/B 4.4 02:02:46 10° WSW 02:26:35 49° S 02:35:28 10° ESE
DELTA 2 R/B (1) 4.3 02:34:21 39° ESE 02:34:21 39° ESE 02:38:27 10° E
Meteor 2-2 Rocket 4.1 02:27:44 10° N 02:33:24 88° E 02:34:14 66° SSE
NOSS 2-1 (D) 4.2 02:34:53 43° ENE 02:34:53 43° ENE 02:38:00 10° NE
NOSS 2-1 (C) 4.2 02:35:03 42° ENE 02:35:03 42° ENE 02:38:08 10° NE
BREEZE-M DEB 4.4 02:35:29 32° ESE 02:35:29 32° ESE 02:37:28 10° ENE
Cosmos 1626 4.0 02:35:05 24° E 02:35:05 24° E 02:37:57 10° NE
PSLV R/B 3.8 02:33:57 10° N 02:37:38 58° NW 02:37:38 58° NW
Cosmos 1515 Rocket 3.7 02:34:03 10° N 02:38:25 67° ENE 02:38:25 67° ENE
Cosmos 1743 Rocket 3.6 02:39:35 79° N 02:39:35 79° N 02:43:47 10° N
Cosmos 1242 Rocket 4.3 02:35:55 10° NNW 02:37:46 27° NNW 02:37:46 27° NNW
Cosmos 614 Rocket 4.3 02:39:00 52° SE 02:39:34 54° ESE 02:44:40 10° NNE
ATLAS 2AS CENTAUR R/B 2.8 02:32:36 10° NW 02:40:37 78° WSW 02:43:52 38° SSE
Cosmos 2333 Rocket 2.1 02:36:21 10° NNW 02:42:06 90° NNE 02:43:19 58° SSE
Cosmos 1140 Rocket 3.4 02:42:01 67° SSE 02:42:31 73° ESE 02:47:43 10° NNE
Cosmos 2297 Rocket 2.4 02:45:42 50° SSE 02:46:41 57° ESE 02:52:14 10° NNE
NOSS 3-3 (A) 4.0 02:45:42 50° WSW 02:47:20 71° NW 02:54:00 10° NNE
NOSS 3-3 (C) 4.0 02:45:49 50° WSW 02:47:27 72° NW 02:54:05 10° NNE
Cosmos 2219 Rocket 2.1 02:43:15 10° NNW 02:48:53 65° WSW 02:49:22 62° SW
Cosmos 1980 3.7 02:44:24 10° NNW 02:50:08 80° ENE 02:52:08 42° SSE
Cosmos 2151 3.0 02:51:46 70° E 02:51:46 70° E 02:55:55 10° NNE
Cosmos 1703 4.1 02:52:13 42° E 02:52:13 42° E 02:55:56 10° NNE
Aureole 2 Rocket 3.0 02:50:31 10° NNW 02:54:35 71° ENE 02:54:38 71° ENE
NOSS 2-1 (E) 3.4 02:57:17 75° NE 02:57:17 75° NE 03:01:13 10° NE
Cosmos 1850 Rocket 4.3 02:56:14 48° SE 02:57:13 57° ESE 03:02:18 10° NNE
Cosmos 1726 3.7 02:57:13 10° NNW 02:59:25 27° NW 02:59:25 27° NW
SL-14 R/B 4.0 03:02:50 45° WNW 03:02:50 45° WNW 03:06:20 10° N
SL-16 R/B 3.4 02:58:18 11° SE 03:03:53 46° ENE 03:09:43 10° N
NPP 3.7 02:58:33 10° NNE 03:03:58 76° ESE 03:05:22 50° S
Cosmos 1741 Rocket 4.2 03:02:50 49° SSE 03:04:02 64° ESE 03:09:20 10° NNE
Cosmos 1356 4.4 03:07:02 40° E 03:07:02 40° E 03:10:17 10° NNE
Cosmos 2237 Rocket 2.0 03:03:04 10° NNW 03:08:43 79° WSW 03:10:34 44° S
Cosmos 1328 Rocket 4.4 03:04:43 10° NNW 03:08:20 37° WNW 03:08:20 37° WNW
SL-16 R/B 3.2 03:04:51 10° NNW 03:10:19 46° ENE 03:15:45 10° SE
Cosmos 1151 Rocket 2.9 03:06:43 10° NNW 03:11:02 70° W 03:11:07 69° WSW
Cosmos 1300 4.1 03:09:28 10° NNW 03:11:53 28° WNW 03:11:53 28° WNW
Meteor 2-10 4.2 03:09:41 10° NNW 03:14:40 52° W 03:15:17 49° WSW
CBERS-1 3.9 03:13:46 10° NNE 03:18:54 86° WNW 03:20:19 49° SSW
Resurs 1-4 Rocket 2.8 03:15:58 10° NNE 03:21:05 47° E 03:23:39 27° SSE
Cosmos 1570 Rocket 4.1 03:15:49 10° NNW 03:21:13 78° ENE 03:24:21 25° SSE
Helios 1A Rocket 4.1 03:18:48 10° N 03:22:26 29° WNW 03:22:38 29° WNW
Cosmos 2034 Rocket 4.4 03:16:17 10° N 03:22:35 61° E 03:27:38 16° SSE
Cosmos 2227 Rocket 2.5 03:22:51 40° WSW 03:24:35 55° WNW 03:30:10 10° NNE
ARIANE 5 R/B 3.2 03:21:09 10° NNE 03:26:03 47° E 03:28:27 27° SSE
Cosmos 2228 Rocket 4.4 03:22:37 10° NNW 03:26:03 27° W 03:26:03 27° W
Cosmos 2058 3.3 03:32:09 43° W 03:32:23 44° W 03:36:21 10° N
UNK 3.8 03:34:34 26° SSE 03:37:09 74° ENE 03:41:47 10° N
COBE Rocket 3.8 03:33:06 10° NNE 03:37:45 72° E 03:39:38 35° S
Cosmos 1707 Rocket 3.9 03:34:43 10° N 03:39:05 64° E 03:41:37 24° SSE
Tsikada Rocket 4.3 03:36:41 21° S 03:40:59 66° E 03:47:21 10° NNE
CZ-2D R/B 2.2 03:37:26 10° NNE 03:42:40 74° ESE 03:45:23 29° S
Cosmos 1666 Rocket 3.5 03:50:56 33° S 03:52:55 83° E 03:57:23 10° N
Cosmos 1891 Rocket 4.5 03:48:37 10° NNW 03:54:55 68° W 03:59:03 22° S
Cosmos 1455 2.5 03:51:44 10° NNW 03:55:29 49° W 03:56:14 42° SW
IRS-1C 4.5 03:52:24 10° N 03:57:32 50° WNW 03:59:59 29° SW
SL-08 R/B 4.1 03:57:02 31° WSW 03:58:05 34° W 04:02:35 10° NNW
USA 161 3.9 04:00:20 10° E 04:01:09 12° ENE 04:01:57 10° NE
Lacrosse 4 Rocket 1.3 04:02:51 35° SSW 04:04:30 83° WNW 04:08:44 10° NNE
Spot 4 Rocket 4.2 03:59:47 10° N 04:04:51 61° WNW 04:07:35 27° SW
USA 234 4.5 04:08:35 19° WSW 04:08:35 19° WSW 04:12:12 10° WNW
Cosmos 468 Rocket 3.9 04:03:43 10° NNW 04:08:57 88° ENE 04:14:05 10° SSE
Cosmos 1464 Rocket 4.4 04:03:15 10° NNW 04:08:58 42° W 04:12:16 23° SW
Cosmos 1805 Rocket 4.1 04:07:50 30° SW 04:09:27 41° WNW 04:13:40 10° N
Cosmos 1626 3.8 04:09:45 19° W 04:10:13 19° WNW 04:12:57 10° NNW
Cosmos 2208 Rocket 4.5 04:06:15 10° NW 04:11:05 40° WSW 04:13:46 23° SSW
Cosmos 371 Rocket 4.1 04:07:30 10° N 04:12:13 51° ENE 04:16:53 10° SE
ORS 1 (USA 231) 4.5 04:12:40 45° SW 04:13:23 64° SSE 04:16:27 10° E
ADEOS Rocket 3.8 04:07:38 10° N 04:14:56 57° WNW 04:20:34 19° SW
DELTA 2 R/B (1) 3.5 04:15:05 17° W 04:19:25 81° S 04:24:59 10° E
IRS-1D 4.0 04:15:01 10° N 04:20:09 49° WNW 04:23:25 21° SW
Cosmos 1869 3.6 04:19:04 10° NNW 04:22:56 46° W 04:25:10 22° SSW
Cosmos 2333 Rocket 4.1 04:23:54 10° W 04:25:15 11° W 04:25:15 11° W
Cosmos 1634 Rocket 4.1 04:22:03 10° N 04:28:16 77° E 04:34:25 10° S
Cosmos 1763 Rocket 3.7 04:24:23 10° NNW 04:29:38 73° ENE 04:34:46 10° SSE
ATLAS 2AS CENTAUR R/B 4.4 04:26:31 10° WNW 04:30:14 14° WSW 04:31:13 14° WSW
Cosmos 2297 Rocket 3.8 04:27:30 12° W 04:31:07 22° NW 04:35:27 10° N
CZ-2D R/B 3.4 04:27:14 10° N 04:31:19 80° WNW 04:34:35 16° SSW
NOSS 3-4 (A) 3.8 04:25:15 10° NW 04:32:18 68° WSW 04:39:46 10° SSE
Okean O Rocket 3.5 04:28:42 10° NE 04:32:23 27° E 04:36:03 10° SSE
NOSS 3-4 (C) 3.8 04:25:21 10° NW 04:32:24 68° WSW 04:39:53 10° SSE
Cosmos 1603 3.9 04:27:39 10° NNW 04:33:23 78° ENE 04:39:03 10° SSE
Cosmos 1814 Rocket 4.0 04:28:09 10° NNW 04:33:30 79° WSW 04:38:51 10° SSE
GP-B 4.3 04:30:37 10° NNE 04:34:52 43° E 04:39:06 10° SSE
Sich 1 4.0 04:34:32 19° SW 04:36:53 32° WNW 04:40:50 10° NNW
Cosmos 1633 Rocket 3.7 04:34:27 19° SW 04:37:01 37° WNW 04:41:06 10° N
Cosmos 1470 Rocket 3.5 04:33:52 14° SSW 04:37:33 78° W 04:41:53 10° N
USA 102 4.3 04:40:00 10° NE 04:42:54 29° E 04:44:06 15° SSE
Cosmos 332 Rocket 3.9 04:42:51 10° NNW 04:47:35 55° WSW 04:52:19 10° S
SL-16 R/B 3.4 04:43:24 14° SSW 04:47:39 28° W 04:52:50 10° NW
UNKNOWN OBJECT B 3.5 04:46:03 10° N 04:49:47 38° WNW 04:52:49 14° SW
MOS 1 Rocket 3.8 04:44:50 10° N 04:49:56 59° WNW 04:55:13 10° SSW
SL-16 R/B 3.3 04:49:37 10° NW 04:54:05 24° W 04:58:33 10° SSW
ATLAS 5 CENTAUR R/B 2.2 04:49:36 10° SSW 04:54:08 57° ESE 04:59:03 10° NE
Cosmos 220 Rocket 4.2 04:52:17 12° SSW 04:56:16 62° WNW 05:00:42 10° NNE
SL-24 R/B 3.8 04:53:32 10° N 04:57:21 63° WNW 05:00:56 10° SSW
CZ-4B R/B 4.2 04:53:11 10° NNE 04:58:17 45° E 05:03:24 10° S
Cosmos 1354 Rocket 4.2 04:54:04 10° SSW 04:59:20 76° ESE 05:04:37 10° NNE
Resurs 1-4 Rocket 3.6 04:56:34 10° NNW 05:00:35 22° WNW 05:04:36 10° WSW
Cosmos 1315 Rocket 3.4 04:58:17 10° S 05:02:16 59° E 05:06:14 10° NNE
ARIANE 5 R/B 4.0 05:01:06 10° NNW 05:04:48 21° WNW 05:08:28 10° WSW
PSLV R/B 4.3 05:01:32 10° NNE 05:05:40 52° E 05:09:45 10° S
ADEOS II 2.3 05:02:05 10° NNE 05:07:21 74° ESE 05:12:37 10° S
Okean 1-7 4.3 05:05:09 10° N 05:09:14 43° E 05:13:17 10° SSE
ATLAS 3B CENTAUR R/B 3.9 05:01:19 10° W 05:10:29 25° SW 05:15:02 10° SSE
Cosmos 540 Rocket 3.9 05:10:05 10° NNW 05:15:16 69° ENE 05:20:24 10° SSE
Meteor 2-3 Rocket 3.8 05:09:46 10° S 05:15:27 85° W 05:21:14 10° N
BREEZE M DEB (TANK) 1.8 05:16:14 10° SW 05:18:56 69° SE 05:21:10 10° ENE
Cosmos 1943 3.2 05:14:59 10° NNW 05:20:38 88° WSW 05:26:17 10° SSE
IRS-1C Rocket 4.4 05:15:49 10° NNE 05:21:07 74° ESE 05:26:23 10° S
CZ-2D R/B 4.0 05:19:21 10° NNW 05:22:06 15° WNW 05:24:52 10° W
Cosmos 2221 Rocket 4.0 05:20:07 10° N 05:24:41 74° E 05:29:11 10° SSE
Cosmos 1867 3.6 05:21:55 10° SSW 05:27:21 84° WNW 05:32:51 10° NNE
Cosmos 2263 Rocket 2.2 05:22:18 10° SSW 05:27:52 87° WNW 05:33:28 10° NNE
CZ-3 R/B 3.9 04:58:07 10° W 05:33:32 47° SSW 05:42:20 10° SE
